This is the latest recevied weather packets stored in our database for station/object OE1HTB-13. If no packets are shown the sender has not sent any weather packets the latest 1 day(s).
| Time | Temp. | Humidity | Pressure | Rain* | Wind** | Luminosity | Snow |
|---|---|---|---|---|---|---|---|
| 1836274745 | 14.44° C | 83% | 1022.7 hPa | 0 mm | 0.45 m/s, 120° | 0 W/m² | - |
| 1778019374 | 14.44° C | 70% | 1004.2 hPa | 0 mm | 0.45 m/s, 101° | 0 W/m² | - |
| 1778018473 | 14.44° C | 68% | 1004.2 hPa | 0 mm | 0.89 m/s, 5° | 0 W/m² | - |
| 1778017574 | 14.44° C | 68% | 1004.2 hPa | 0 mm | 0.45 m/s, 308° | 0 W/m² | - |
| 1778016673 | 14.44° C | 67% | 1004.1 hPa | 0 mm | 0.45 m/s, 311° | 0 W/m² | - |
| 1778015773 | 14.44° C | 66% | 1003.9 hPa | 0 mm | 0.45 m/s, 297° | 0 W/m² | - |
| 1778014873 | 15° C | 65% | 1004 hPa | 0 mm | 0 m/s | 0 W/m² | - |
| 1778013973 | 15.56° C | 63% | 1003.7 hPa | 0 mm | 0 m/s | 0 W/m² | - |
| 1778013072 | 16.11° C | 61% | 1003.5 hPa | 0 mm | 0.45 m/s, 122° | 0 W/m² | - |
| 1778012173 | 16.11° C | 59% | 1003.3 hPa | 0 mm | 0.89 m/s, 75° | 0 W/m² | - |
| 1778011272 | 16.67° C | 58% | 1003.4 hPa | 0 mm | 0.89 m/s, 102° | 0 W/m² | - |
| 1778010372 | 16.67° C | 57% | 1003.3 hPa | 0 mm | 0.89 m/s, 106° | 0 W/m² | - |
| 1778009472 | 17.22° C | 56% | 1003.2 hPa | 0 mm | 1.34 m/s, 136° | 0 W/m² | - |
| 1778008573 | 17.78° C | 55% | 1003.2 hPa | 0 mm | 1.34 m/s, 94° | 0 W/m² | - |
| 1778007672 | 17.78° C | 53% | 1003.2 hPa | 0 mm | 1.79 m/s, 130° | 0 W/m² | - |
| 1778006772 | 17.78° C | 53% | 1003.1 hPa | 0 mm | 1.79 m/s, 64° | 0 W/m² | - |
| 1778005871 | 18.33° C | 52% | 1003.1 hPa | 0 mm | 2.24 m/s, 133° | 0 W/m² | - |
| 1778004971 | 18.89° C | 50% | 1003.1 hPa | 0 mm | 2.24 m/s, 120° | 0 W/m² | - |
| 1778004071 | 19.44° C | 48% | 1003.1 hPa | 0 mm | 2.24 m/s, 153° | 5 W/m² | - |
| 1778003171 | 20° C | 47% | 1003 hPa | 0 mm | 2.68 m/s, 151° | 11 W/m² | - |
| 1778002271 | 20.56° C | 46% | 1002.9 hPa | 0 mm | 2.24 m/s, 148° | 21 W/m² | - |
| 1778001371 | 21.11° C | 46% | 1002.8 hPa | 0 mm | 3.13 m/s, 166° | 46 W/m² | - |
| 1778000471 | 21.11° C | 46% | 1002.9 hPa | 0 mm | 2.68 m/s, 100° | 83 W/m² | - |
| 1777999571 | 21.67° C | 44% | 1003.1 hPa | 0 mm | 2.68 m/s, 125° | 83 W/m² | - |
| 1777998670 | 21.67° C | 44% | 1003.4 hPa | 0 mm | 3.13 m/s, 122° | 93 W/m² | - |
* Rain latest hour (hover to see other rain measurements)
** Current wind speed in m/s (hover to see current wind gust speed)